Simultaneous Nadir Overpasses (SNOs) Predictions

Prediction of SNOs between AURA and NPP Satellite Orbit:

Table of predicted SNOs for the next 14.0 days since TLE Epoch: 1/11/2013
Index Date (AURA) Time (AURA) Lat,Lon (AURA) SZA (AURA ) Date (NPP) Time (NPP) Lat,Lon (NPP) SZA (NPP ) Distance(km) Time Diff (sec)
1 01/13/2013 20:47:10 79.78, 127.04 113.36 01/13/2013 20:46:51 79.77, 126.96 113.39 1.82 19
2 01/13/2013 21:36:32 -79.95, -63.90 66.92 01/13/2013 21:37:30 -79.95, -63.93 66.96 0.63 58
3 01/16/2013 12:14:15 -79.62, 74.15 66.86 01/16/2013 12:13:05 -79.61, 74.04 66.78 2.35 70
4 01/16/2013 13:03:34 79.87,-116.31 112.77 01/16/2013 13:03:41 79.88,-116.20 112.74 2.26 7
5 01/19/2013 04:30:38 -79.70,-169.38 67.47 01/19/2013 04:29:55 -79.70,-169.45 67.42 1.33 43
6 01/19/2013 05:19:57 79.95, 0.18 112.16 01/19/2013 05:20:31 79.96, 0.33 112.11 3.10 34
7 01/21/2013 20:47:00 -79.83, -52.52 68.20 01/21/2013 20:46:44 -79.84, -52.38 68.22 2.93 16
8 01/21/2013 21:36:21 80.00, 116.51 111.53 01/21/2013 21:37:23 80.00, 116.54 111.48 0.75 62
9 01/24/2013 12:14:02 79.67,-105.42 111.45 01/24/2013 12:12:57 79.68,-105.35 111.49 1.59 65




NCC Satellite Simultaneous Nadir Overpasses (SNOs) Prediction Service
